Tracking 19709 objects as of 17-Jun-2019
HD Live streaming from Space Station
objects crossing your sky now

DELTA 1 DEB

Track DELTA 1 DEB now!
10-day predictions


NORAD ID: 7162
Int'l Code: 1973-086EA
Perigee: 1,268.5 km
Apogee: 1,419.5 km
Inclination: 101.6 °
Period: 112.4 minutes
Semi major axis: 7714 km
RCS: 0.0651 m2 (small)
Launch date: November 6, 1973
Source: United States (US)
Launch site: AIR FORCE WESTERN TEST RANGE (AFWTR)

Note: This is SATELLITE DEBRIS
aabbcc
Your satellite tracking list
Your tracking list is empty




NASA's NSSDC Master Catalog

Two Line Element Set (TLE):
1  7162U 73086EA  19167.91137403 +.00001098 +00000-0 +48573-2 0  9999
2  7162 101.5945 278.1093 0097868 350.9292 129.1795 12.81153912100740
Source of the keplerian elements: AFSPC